User: anonymous   Login
Location: Unspecified
(0.0000°N, 0.0000°E)
Time: 06:31:07
(UTC+02:00)
Language:

NOAA 12 - Orbit

View from above orbital plane
View from above orbital plane
View from above satellite
View from above satellite

Ground track
Ground track

The orbit data is extracted from the following two-line orbital elements,

1 21263U 91032A   17267.59340994 -.00000018 +00000-0 +10380-4 0  9991
2 21263 098.5588 289.3473 0013553 356.6763 003.4325 14.25849557370634
Epoch (UTC): 24 September 2017 14:14:30
Eccentricity: 0.0013553
inclination: 98.5588°
perigee height: 796 km
apogee height: 815 km
right ascension of ascending node: 289.3473°
argument of perigee: 356.6763°
revolutions per day: 14.25849557
mean anomaly at epoch: 3.4325°
orbit number at epoch: 37063

The dashed part of the orbit path shows where the satellite is in the earth's shadow,  

DLR